Estació meteorològica de Serrat (Ripollès, P. N. de les capçaleres del Ter i el Fresser)

Consulta les dades en temps real de l'estació meteorològica de Serrat





Hora UTC 05:25
Temperatura 6.2 ºC
Humitat 55.0 %
Pressió 1014.1 hPa
Pluja 0.0 mm
Velocitat vent 0.0 km/h
Direcció vent SE
Radiació solar 0.0 W/m²

Dades diàries 2026-05-09



Hora UTC (hivern +1h; estiu +2h)
Temperatura (ºC) Humitat (%) Pressió (hPa) Velocitat vent (km/h) Precipitació (mm) Radiació solar (W/m²)
Hora UTC Aire Humitat Pressió Vel. Dir. Vel. Max Dir. Intent. màx 5 min. Rad. Sol.
00:05 7.3 56.0 1015.5 0.0 SE 0.0 0.0 0.0
00:10 7.3 56.0 1015.4 0.0 SE 0.0 0.0 0.0
00:15 7.4 56.0 1015.6 0.0 SE 0.0 0.0 0.0
00:20 7.6 56.0 1015.5 0.0 SE 0.0 0.0 0.0
00:25 7.7 56.0 1015.6 0.0 SE 0.0 0.0 0.0
00:30 7.7 56.0 1015.6 0.0 SE 0.0 0.0 0.0
00:35 7.8 55.0 1015.5 0.0 SE 0.0 0.0 0.0
00:40 7.8 56.0 1015.6 0.0 SE 0.0 0.0 0.0
00:45 7.8 56.0 1015.5 0.0 SE 1.6 0.0 0.0
00:50 7.8 55.0 1015.6 0.0 SE 3.2 0.0 0.0
00:55 7.7 55.0 1015.6 0.0 SE 3.2 0.0 0.0
01:00 7.7 56.0 1015.5 0.0 SE 3.2 0.0 0.0
01:05 7.8 56.0 1015.6 0.0 SE 1.6 0.0 0.0
01:10 7.9 56.0 1015.6 1.6 SE 1.6 0.0 0.0
01:15 7.8 55.0 1015.6 0.0 SE 1.6 0.0 0.0
01:20 7.8 55.0 1015.4 0.0 SE 1.6 0.0 0.0
01:25 7.6 55.0 1015.4 0.0 SE 0.0 0.0 0.0
01:30 7.3 55.0 1015.3 0.0 SE 1.6 0.0 0.0
01:35 7.2 55.0 1015.2 0.0 SE 1.6 0.0 0.0
01:40 7.1 56.0 1015.2 0.0 SE 1.6 0.0 0.0
01:45 7.0 56.0 1015.2 0.0 SE 0.0 0.0 0.0
01:50 6.8 56.0 1015.0 0.0 SE 0.0 0.0 0.0
01:55 6.7 56.0 1015.1 0.0 SE 0.0 0.0 0.0
02:00 6.6 56.0 1015.0 0.0 SE 0.0 0.0 0.0
02:05 6.4 56.0 1015.0 0.0 SE 0.0 0.0 0.0
02:10 6.2 56.0 1015.0 0.0 SE 0.0 0.0 0.0
02:15 6.2 56.0 1014.8 0.0 SE 0.0 0.0 0.0
02:20 6.1 56.0 1014.7 0.0 SE 0.0 0.0 0.0
02:25 6.2 56.0 1014.7 0.0 SE 0.0 0.0 0.0
02:30 6.1 56.0 1014.5 0.0 SE 0.0 0.0 0.0
02:35 6.0 56.0 1014.5 0.0 SE 0.0 0.0 0.0
02:40 6.1 56.0 1014.4 0.0 SE 0.0 0.0 0.0
02:45 6.1 56.0 1014.5 0.0 SE 0.0 0.0 0.0
02:50 6.1 56.0 1014.5 0.0 SE 1.6 0.0 0.0
02:55 6.1 56.0 1014.6 0.0 SE 1.6 0.0 0.0
03:00 6.0 56.0 1014.6 0.0 SE 1.6 0.0 0.0
03:05 6.0 56.0 1014.6 0.0 SE 0.0 0.0 0.0
03:10 5.9 56.0 1014.4 0.0 SE 0.0 0.0 0.0
03:15 5.9 56.0 1014.4 0.0 SE 1.6 0.0 0.0
03:20 5.8 56.0 1014.3 0.0 SE 0.0 0.0 0.0
03:25 5.8 56.0 1014.2 0.0 SE 0.0 0.0 0.0
03:30 5.8 56.0 1014.1 0.0 SE 1.6 0.0 0.0
03:35 5.8 56.0 1013.9 0.0 SE 1.6 0.0 0.0
03:40 5.9 56.0 1014.1 0.0 SE 1.6 0.0 0.0
03:45 5.8 55.0 1014.4 0.0 SE 0.0 0.0 0.0
03:50 5.7 56.0 1014.5 0.0 SE 0.0 0.0 0.0
03:55 5.7 56.0 1014.3 0.0 SE 0.0 0.0 0.0
04:00 5.6 55.0 1014.2 0.0 SE 1.6 0.0 0.0
04:05 5.6 55.0 1014.1 0.0 SE 0.0 0.0 0.0
04:10 5.4 56.0 1014.2 0.0 SE 1.6 0.0 0.0
04:15 5.5 56.0 1014.1 0.0 SE 1.6 0.0 0.0
04:20 5.4 56.0 1014.1 0.0 SE 0.0 0.0 0.0
04:25 5.4 56.0 1014.1 0.0 SE 0.0 0.0 0.0
04:30 5.4 56.0 1014.2 0.0 SE 0.0 0.0 0.0
04:35 5.5 56.0 1014.3 0.0 SE 0.0 0.0 0.0
04:40 5.6 56.0 1014.3 0.0 SE 0.0 0.0 0.0
04:45 5.6 56.0 1014.2 0.0 SE 0.0 0.0 0.0
04:50 5.6 56.0 1014.1 0.0 SE 0.0 0.0 0.0
04:55 5.6 56.0 1014.2 0.0 SE 0.0 0.0 0.0
05:00 5.6 56.0 1014.0 0.0 SE 0.0 0.0 0.0
05:05 5.7 56.0 1013.9 0.0 SE 0.0 0.0 0.0
05:10 5.8 56.0 1014.1 0.0 SE 0.0 0.0 0.0
05:15 6.0 56.0 1014.1 0.0 SE 0.0 0.0 0.0
05:20 6.2 55.0 1014.1 0.0 SE 0.0 0.0 0.0
05:25 6.2 55.0 1014.1 0.0 SE 0.0 0.0 0.0
Màxima 7.9 56.0 1015.6 1.6 SE 3.2 0.0 0.0
Mínima 5.4 55.0 1013.9
Total 0.0